CAPE
0 0 0 0 0 0 0 0 0 0 0 0 0 0 0 0 0 0 0 0 0 0 0 0 0 0 0 0 0 81 3 0 8 24 15 2 78 120 99 56 44 5 43 64 268
0 0 0 0 0 0 0 0 0 0 0 0 0 0 0 0 0 0 0 0 0 0 0 0 0 0 0 0 0 111 0 0 48 13 4 12 97 223 85 43 10 43 78 210 263
0 0 0 0 0 0 0 0 0 0 0 0 0 0 0 0 0 0 0 0 0 0 0 0 0 0 0 0 1 164 1 124 92 34 5 35 94 172 96 48 29 0 51 217 251
0 0 0 0 0 0 0 0 0 0 0 0 0 0 0 0 0 0 0 0 0 0 0 0 0 0 0 0 304 5 345 305 47 12 1 45 71 68 99 123 8 1 53 149 206
0 0 0 0 0 0 0 0 0 0 0 0 0 0 0 0 0 0 0 0 0 0 0 0 0 0 0 50 307 211 253 71 49 14 1 14 40 77 101 126 26 34 48 40 72
0 0 0 0 0 0 0 0 0 0 0 0 0 0 0 0 0 0 0 0 0 0 0 0 0 0 1 198 266 243 208 82 43 33 43 1 19 36 114 97 7 22 16 35 28
0 0 0 0 0 0 0 0 0 0 0 0 0 0 0 0 0 0 0 0 0 0 0 0 0 0 0 182 154 96 45 62 128 4 49 52 26 50 91 57 21 26 0 18 18
0 0 0 0 0 0 0 0 0 0 0 0 0 0 0 0 0 0 0 0 0 0 0 0 0 0 32 6 3 0 0 24 102 93 137 17 16 53 36 53 48 53 12 0 8
0 0 0 0 0 0 0 0 0 0 0 0 0 0 0 0 0 0 0 0 0 0 0 0 0 24 66 3 0 0 0 1 109 79 108 6 2 2 32 38 32 56 57 27 10
0 0 0 0 0 0 0 0 0 0 0 0 0 0 0 0 0 0 0 0 0 0 0 0 0 0 0 0 0 0 0 0 4 245 45 40 0 0 20 26 2 32 81 60 24
0 0 0 0 0 0 0 0 0 0 0 0 0 0 0 0 0 0 0 0 0 0 0 0 0 0 0 0 0 0 0 5 15 292 77 4 5 0 0 0 0 0 0 50 40
0 0 0 0 0 0 0 0 0 0 0 0 0 0 0 0 0 0 0 0 0 0 0 0 0 0 0 0 0 0 0 0 60 277 298 158 57 19 7 17 0 0 0 0 4
0 0 0 0 0 0 0 0 0 0 0 0 0 0 0 0 0 0 0 0 0 0 0 0 0 0 0 0 0 0 2 10 7 291 283 230 71 2 26 46 13 0 0 0 3
0 0 0 0 0 0 0 0 0 0 0 0 0 0 0 0 0 0 0 0 0 0 0 0 0 0 0 0 0 0 13 23 61 62 5 65 3 0 0 0 20 14 0 0 0
0 0 1 1 0 0 0 0 0 0 0 0 0 0 0 0 0 0 0 0 0 0 0 0 0 0 0 0 0 0 29 14 193 66 39 25 1 0 0 0 2 14 0 0 2
0 0 2 0 0 0 0 0 0 0 0 0 0 0 0 0 0 0 0 0 0 0 0 0 0 0 0 0 3 4 0 32 125 92 24 0 0 0 0 0 0 0 3 15 6
0 0 1 0 0 0 0 0 0 0 0 0 0 0 0 0 0 0 0 0 0 0 0 0 0 0 0 0 43 33 2 0 11 17 0 0 0 0 0 0 0 0 9 36 11
0 0 0 0 0 0 0 0 0 0 0 0 0 0 0 0 0 0 0 0 0 0 0 0 0 0 0 0 0 0 0 0 0 0 0 0 0 0 0 0 0 0 0 7 50
0 0 0 0 0 0 0 0 0 0 0 0 0 0 0 0 0 0 0 0 0 0 0 0 0 0 0 0 0 0 0 0 0 0 0 0 0 3 59 22 19 15 14 31 136
0 0 0 0 0 0 0 0 0 0 0 0 0 0 0 0 0 0 0 0 0 0 0 0 0 0 0 0 0 0 0 0 0 0 0 0 0 0 151 156 62 45 53 61 149
0 0 0 0 0 0 0 0 0 0 0 0 0 0 0 0 0 0 0 0 0 0 0 0 0 0 0 0 0 0 0 0 0 0 0 0 0 10 135 271 207 256 180 212 36
0 0 0 0 0 0 0 0 0 0 0 0 0 0 0 0 0 0 0 0 0 0 0 0 0 0 0 0 0 0 0 0 0 0 0 0 0 2 29 185 257 360 343 343 305
0 0 0 0 0 0 0 0 0 0 0 0 0 0 0 0 0 0 0 0 0 0 0 0 0 0 0 0 0 0 0 0 0 0 0 0 0 0 76 143 179 204 303 321 263
0 0 0 0 0 0 0 0 0 0 0 0 0 0 0 0 0 0 0 0 0 0 0 0 0 0 0 0 0 0 0 0 0 3 0 0 1 30 52 162 237 223 207 167 240
0 0 0 0 0 0 0 0 0 0 0 0 0 0 0 0 0 0 0 0 0 0 0 0 0 0 0 0 0 0 0 0 0 0 1 8 6 44 82 132 177 198 187 210 305
0 0 0 0 0 0 0 0 0 0 0 0 0 0 0 0 0 0 0 0 0 0 0 0 0 0 0 0 0 0 0 0 2 0 0 0 0 1 50 105 154 165 225 303 368
0 0 0 0 0 0 0 0 0 0 0 0 0 0 0 0 0 0 0 0 0 0 0 0 0 0 0 0 0 0 0 0 0 0 2 0 21 0 21 110 175 176 278 363 450
CIN
-0 -0 -0 -0 -0 -0 -0 -0 -0 -0 -0 -0 -0 -0 -0 -0 -0 -0 -0 -0 -0 -0 -0 -0 -0 -0 -0 -0 -0 -106 -38 -0 -24 -43 -71 -89 -32 -73 -83 -87 -95 -48 -112 -124 -93
-0 -0 -0 -0 -0 -0 -0 -0 -0 -0 -0 -0 -0 -0 -0 -0 -0 -0 -0 -0 -0 -0 -0 -0 -0 -0 -0 -0 -0 -52 -0 -0 -49 -61 -73 -75 -37 -34 -74 -87 -82 -110 -145 -126 -91
-0 -0 -0 -0 -0 -0 -0 -0 -0 -0 -0 -0 -0 -0 -0 -0 -0 -0 -0 -0 -0 -0 -0 -0 -0 -0 -0 -0 -11 -60 -9 -45 -57 -139 -74 -54 -30 -65 -64 -54 -50 -0 -142 -92 -63
-0 -0 -0 -0 -0 -0 -0 -0 -0 -0 -0 -0 -0 -0 -0 -0 -0 -0 -0 -0 -0 -0 -0 -0 -0 -0 -0 -0 -70 -9 -53 -41 -131 -205 -20 -46 -59 -54 -54 -41 -12 -15 -101 -104 -71
-0 -0 -0 -0 -0 -0 -0 -0 -0 -0 -0 -0 -0 -0 -0 -0 -0 -0 -0 -0 -0 -0 -0 -0 -0 -0 -0 -68 -69 -54 -59 -139 -169 -199 -51 -92 -42 -65 -49 -50 -85 -119 -98 -109 -99
-0 -0 -0 -0 -0 -0 -0 -0 -0 -0 -0 -0 -0 -0 -0 -0 -0 -0 -0 -0 -0 -0 -0 -0 -0 -0 -4 -83 -72 -96 -97 -137 -194 -152 -112 -54 -49 -79 -73 -90 -88 -105 -101 -103 -91
-0 -0 -0 -0 -0 -0 -0 -0 -0 -0 -0 -0 -0 -0 -0 -0 -0 -0 -0 -0 -0 -0 -0 -0 -0 -0 -0 -79 -153 -130 -124 -117 -107 -216 -86 -95 -70 -49 -74 -88 -75 -92 -0 -104 -104
-0 -0 -0 -0 -0 -0 -0 -0 -0 -0 -0 -0 -0 -0 -0 -0 -0 -0 -0 -0 -0 -0 -0 -0 -0 -0 -138 -69 -59 -0 -0 -79 -96 -87 -59 -85 -34 -70 -83 -82 -86 -146 -78 -0 -100
-0 -0 -0 -0 -0 -0 -0 -0 -0 -0 -0 -0 -0 -0 -0 -0 -0 -0 -0 -0 -0 -0 -0 -0 -0 -129 -160 -33 -0 -0 -20 -51 -70 -100 -90 -62 -22 -38 -101 -79 -70 -94 -122 -115 -113
-0 -0 -0 -0 -0 -0 -0 -0 -0 -0 -0 -0 -0 -0 -0 -0 -0 -0 -0 -0 -0 -0 -0 -0 -0 -0 -0 -0 -0 -0 -0 -0 -53 -95 -128 -109 -0 -0 -142 -128 -20 -76 -106 -114 -118
-0 -0 -0 -0 -0 -0 -0 -0 -0 -0 -0 -0 -0 -0 -0 -0 -0 -0 -0 -0 -0 -0 -0 -0 -0 -0 -0 -0 -0 -0 -0 -75 -92 -94 -119 -173 -160 -0 -0 -0 -0 -0 -0 -108 -98
-0 -0 -0 -0 -0 -0 -0 -0 -0 -0 -0 -0 -0 -0 -0 -0 -0 -0 -0 -0 -0 -0 -0 -0 -0 -0 -0 -0 -0 -0 -0 -30 -110 -115 -101 -112 -107 -164 -164 -149 -0 -0 -0 -0 -147
-0 -0 -0 -0 -0 -0 -0 -0 -0 -0 -0 -0 -0 -0 -0 -0 -0 -0 -0 -0 -0 -0 -0 -0 -0 -0 -0 -0 -0 -0 -51 -54 -48 -131 -160 -129 -135 -68 -175 -178 -201 -0 -0 -0 -122
-0 -0 -0 -0 -0 -0 -0 -0 -0 -0 -0 -0 -0 -0 -0 -0 -0 -0 -0 -0 -0 -0 -0 -0 -0 -0 -0 -0 -0 -0 -121 -83 -101 -82 -48 -161 -77 -0 -0 -29 -245 -229 -0 -0 -0
-0 -0 -0 -0 -0 -0 -0 -0 -0 -0 -0 -0 -0 -0 -0 -0 -0 -0 -0 -0 -0 -0 -0 -0 -0 -0 -0 -0 -0 -5 -84 -89 -74 -78 -96 -134 -31 -0 -0 -0 -190 -256 -0 -18 -165
-0 -0 -0 -0 -0 -0 -0 -0 -0 -0 -0 -0 -0 -0 -0 -0 -0 -0 -0 -0 -0 -0 -0 -0 -0 -0 -0 -0 -44 -88 -40 -152 -135 -114 -35 -0 -0 -0 -0 -0 -0 -0 -318 -247 -214
-0 -0 -0 -0 -0 -0 -0 -0 -0 -0 -0 -0 -0 -0 -0 -0 -0 -0 -0 -0 -0 -0 -0 -0 -0 -0 -0 -0 -176 -136 -69 -0 -31 -24 -0 -0 -0 -0 -0 -0 -0 -0 -170 -243 -227
-0 -0 -0 -0 -0 -0 -0 -0 -0 -0 -0 -0 -0 -0 -0 -0 -0 -0 -0 -0 -0 -0 -0 -0 -0 -0 -0 -0 -0 -0 -0 -0 -0 -0 -0 -0 -0 -0 -0 -17 -50 -0 -0 -178 -212
-0 -0 -0 -0 -0 -0 -0 -0 -0 -0 -0 -0 -0 -0 -0 -0 -0 -0 -0 -0 -0 -0 -0 -0 -0 -0 -0 -0 -0 -0 -0 -0 -0 -0 -0 -0 -0 -8 -197 -206 -276 -306 -279 -213 -186
-0 -0 -0 -0 -0 -0 -0 -0 -0 -0 -0 -0 -0 -0 -0 -0 -0 -0 -0 -0 -0 -0 -0 -0 -0 -0 -0 -0 -0 -0 -0 -0 -0 -0 -0 -0 -9 -0 -59 -96 -214 -216 -205 -237 -222
-0 -0 -0 -0 -0 -0 -0 -0 -0 -0 -0 -0 -0 -0 -0 -0 -0 -0 -0 -0 -0 -0 -0 -0 -0 -0 -0 -0 -0 -0 -0 -0 -0 -0 -0 -0 -0 -150 -80 -99 -110 -157 -198 -186 -250
-0 -0 -0 -0 -0 -0 -0 -0 -0 -0 -0 -0 -0 -0 -0 -0 -0 -0 -0 -0 -0 -0 -0 -0 -0 -0 -0 -0 -0 -0 -0 -0 -0 -0 -0 -0 -0 -230 -168 -128 -122 -159 -161 -203 -191
-0 -0 -0 -0 -0 -0 -0 -0 -0 -0 -0 -0 -0 -0 -0 -0 -0 -0 -0 -0 -0 -0 -0 -0 -0 -0 -0 -0 -0 -0 -0 -0 -0 -0 -0 -0 -0 -258 -186 -133 -144 -137 -140 -139 -144
-0 -0 -0 -0 -0 -0 -0 -0 -0 -0 -0 -0 -0 -0 -0 -0 -0 -0 -0 -0 -0 -0 -0 -0 -0 -0 -0 -0 -0 -0 -0 -0 -0 -55 -0 -0 -51 -84 -97 -100 -112 -106 -104 -116 -88
-0 -0 -0 -0 -0 -0 -0 -0 -0 -0 -0 -0 -0 -0 -0 -0 -0 -0 -0 -0 -0 -0 -0 -0 -0 -0 -0 -0 -0 -0 -0 -0 -0 -0 -43 -158 -143 -94 -104 -92 -95 -124 -102 -84 -79
-0 -0 -0 -0 -0 -0 -0 -0 -0 -0 -0 -0 -0 -0 -0 -0 -0 -0 -0 -0 -0 -0 -0 -0 -0 -0 -0 -0 -0 -0 -0 -52 -137 -0 -0 -0 -0 -276 -201 -208 -150 -111 -110 -95 -64
-0 -0 -0 -0 -0 -0 -0 -0 -0 -0 -0 -0 -0 -0 -0 -0 -0 -0 -0 -0 -0 -0 -0 -0 -0 -0 -0 -0 -0 -0 -0 -0 -0 -0 -60 -0 -90 -0 -174 -131 -101 -120 -129 -94 -81
Wind_Speed
11 12 12 12 12 13 15 16 16 16 16 17 17 18 19 19 17 11 16 13 12 14 13 14 13 14 14 13 13 15 17 21 22 18 12 12 13 12 11 14 8 16 6 14 17
10 10 10 10 10 11 11 13 13 14 15 15 16 17 18 19 12 17 16 13 11 11 11 12 13 13 13 14 14 13 16 19 13 14 12 10 11 13 11 12 14 16 13 14 15
12 12 11 11 11 11 11 11 12 12 13 14 14 15 15 13 10 11 12 15 13 10 10 11 11 12 14 16 14 13 16 8 16 11 11 8 10 15 11 11 17 14 18 18 20
14 14 14 13 13 12 12 12 12 12 12 13 13 13 13 14 11 12 11 13 12 10 9 10 11 14 18 18 16 15 19 15 15 14 10 9 13 14 8 11 16 17 20 20 24
17 18 17 16 16 16 15 15 14 13 11 12 12 13 14 12 13 15 13 14 10 9 8 9 11 14 17 17 18 18 16 17 16 14 12 9 10 16 21 20 9 13 21 23 22
22 21 21 21 20 20 19 19 18 15 11 12 13 14 13 11 15 15 15 14 10 8 7 9 11 14 15 16 18 18 17 16 17 13 14 8 17 17 17 11 11 16 22 23 20
25 25 24 24 23 23 23 23 21 20 16 14 14 14 12 12 13 14 14 11 9 8 7 8 11 15 14 16 16 18 16 15 16 14 11 11 12 10 7 13 16 20 19 22 21
27 26 26 26 25 25 24 24 22 17 15 14 14 14 12 12 14 12 12 11 7 6 7 11 11 14 15 14 17 18 16 16 14 11 12 9 10 8 8 11 19 18 22 23 22
27 27 27 27 27 26 26 24 18 14 14 13 15 14 13 12 10 10 11 12 10 7 9 11 11 13 13 14 18 17 18 18 16 12 12 8 16 10 7 8 20 21 20 20 21
28 28 28 28 28 27 26 20 14 15 14 13 14 14 12 13 12 10 11 12 11 9 7 7 10 11 13 14 18 21 22 17 16 11 11 10 9 11 10 5 23 24 24 22 20
30 29 28 28 27 26 21 13 16 17 13 10 12 13 15 14 12 11 10 11 9 8 6 7 7 4 10 11 18 19 18 15 15 12 9 12 12 19 17 4 25 26 28 26 22
33 32 31 30 29 25 12 13 14 16 20 5 4 6 7 11 12 11 11 10 9 7 6 6 8 7 11 11 15 16 16 19 16 13 11 19 18 14 24 25 23 27 25 22 19
35 35 33 32 29 15 16 11 14 20 19 18 11 7 7 9 10 9 11 9 8 6 11 12 9 12 9 13 15 16 13 17 15 13 16 21 25 25 20 16 14 20 16 23 23
35 35 34 33 18 18 16 12 20 15 18 15 12 9 7 9 11 8 9 9 8 11 9 10 16 11 7 6 8 17 17 24 17 17 19 18 21 23 21 15 13 17 14 21 27
34 33 32 26 21 14 11 19 18 14 17 12 11 10 7 8 11 10 9 9 11 12 8 10 11 11 12 12 6 19 17 15 19 22 22 20 19 18 21 20 13 16 24 23 24
35 35 31 18 13 10 18 18 10 15 15 12 9 8 7 5 11 12 8 9 8 7 5 15 9 8 10 10 9 15 15 16 16 18 20 18 16 21 20 19 22 15 20 24 25
37 34 20 13 14 10 16 9 14 14 15 13 11 8 6 6 7 10 7 9 6 6 6 6 17 13 8 8 8 6 16 20 19 18 21 20 17 21 18 22 19 21 16 17 22
35 26 14 11 15 16 9 10 14 13 14 16 15 10 4 6 9 8 7 7 4 8 11 7 3 13 10 12 8 9 6 14 20 19 21 21 23 24 20 17 15 15 14 11 15
27 19 18 17 7 14 7 9 11 9 14 19 15 9 8 10 8 7 4 8 4 11 7 8 7 12 7 6 3 4 8 4 19 20 23 21 22 22 17 12 13 13 12 16 17
22 18 19 16 11 12 10 9 10 9 16 16 15 11 11 14 8 8 4 9 3 7 8 8 11 14 16 12 12 3 6 7 13 20 21 19 21 19 14 13 10 12 14 19 16
17 15 19 14 15 14 10 14 16 12 14 15 17 17 13 19 13 10 13 14 6 7 6 2 6 6 17 11 8 6 6 11 10 18 21 21 23 19 19 14 10 11 15 15 15
18 15 16 15 15 14 12 13 18 16 12 16 15 16 21 16 19 14 14 10 13 9 7 1 8 3 7 19 18 7 2 4 11 27 23 22 25 19 19 6 21 9 18 12 13
19 16 17 14 15 15 17 17 13 16 19 12 14 8 14 20 21 20 17 16 16 13 12 6 12 19 23 16 14 12 10 10 12 15 17 19 24 19 20 17 17 15 8 5 7
20 16 18 16 16 16 19 18 18 20 17 21 16 18 20 19 18 23 22 19 21 19 20 7 14 17 14 12 13 13 12 8 11 14 19 27 27 27 15 16 17 16 12 10 3
21 18 17 18 18 19 17 18 19 20 18 20 15 20 21 21 22 23 23 25 20 21 16 18 24 18 20 20 14 15 6 4 7 15 23 31 14 10 11 11 11 9 5 4 4
21 20 20 20 21 21 21 20 21 22 20 23 21 24 19 18 21 23 25 22 24 24 21 22 27 24 26 16 16 24 2 6 7 13 17 23 29 23 26 8 10 3 1 0 2
22 20 20 20 21 22 21 22 22 24 21 18 25 25 22 23 28 29 27 31 29 28 26 25 26 27 29 24 19 27 9 7 14 14 16 6 22 16 9 3 5 3 3 2 3
Wind_Direction
299 299 295 283 270 260 256 249 241 231 229 229 230 234 243 250 237 114 157 104 85 82 56 66 56 67 56 59 49 28 14 350 345 355 9 43 336 344 36 69 204 271 33 122 98
293 288 283 278 271 260 247 235 227 220 217 217 219 226 237 247 137 172 160 113 62 82 69 81 73 70 66 47 47 54 24 359 35 39 20 54 10 352 25 60 319 314 312 75 95
298 295 290 284 277 269 259 245 225 214 209 205 202 203 203 170 86 119 108 142 123 87 49 46 38 48 36 23 42 51 16 96 16 52 25 22 344 305 57 31 198 172 97 100 119
300 298 294 290 284 278 272 263 244 213 195 190 185 174 166 88 41 92 95 122 113 97 42 25 24 4 352 360 17 22 5 39 44 44 9 341 298 306 330 302 232 103 107 108 131
299 300 297 294 291 287 283 277 261 231 184 153 142 133 77 48 73 96 78 109 98 89 61 28 19 0 337 352 353 2 26 42 43 54 36 344 321 273 210 213 327 70 119 133 131
306 304 301 300 296 295 291 289 279 251 150 98 88 73 56 53 91 85 71 96 103 84 63 42 28 8 351 341 344 347 1 34 28 53 28 44 263 274 249 81 73 103 133 149 138
312 308 305 302 299 298 299 296 291 301 23 43 51 47 46 72 66 93 75 93 95 93 49 77 69 353 0 345 348 343 347 14 28 25 0 32 316 324 25 91 112 134 135 159 166
311 308 306 303 300 298 296 295 293 342 14 26 31 28 55 65 49 76 78 59 75 75 66 63 41 355 342 3 341 338 341 350 13 360 328 17 319 32 324 95 140 138 163 179 181
305 304 303 302 300 299 297 294 333 17 14 29 17 26 38 13 52 83 86 60 86 88 87 66 15 351 354 344 330 338 323 332 344 106 8 57 306 103 58 104 160 166 165 169 182
311 308 305 304 300 298 296 322 15 12 10 8 2 6 23 31 35 59 93 78 74 91 66 48 355 348 340 335 318 318 320 317 317 58 83 108 172 150 113 83 188 187 186 182 177
310 306 302 299 293 286 308 22 343 339 357 15 0 352 344 2 33 57 71 94 47 60 66 355 356 43 353 355 327 323 324 317 321 335 41 141 156 186 171 44 204 200 220 198 190
315 311 305 302 297 303 14 354 358 356 325 33 91 26 72 7 20 46 83 76 83 75 33 41 136 108 12 6 339 327 314 299 313 316 338 291 208 185 210 216 197 205 201 186 175
317 314 308 306 303 342 332 350 348 341 333 328 359 1 37 63 52 84 97 83 74 74 121 135 64 44 34 344 334 309 325 288 319 330 314 301 276 249 221 185 177 189 175 182 175
311 311 313 309 330 321 321 343 320 348 330 339 350 358 39 31 19 57 96 82 28 124 100 125 168 158 114 84 356 291 291 240 299 299 308 279 278 282 277 185 168 179 163 169 179
306 305 309 320 318 328 330 312 321 343 319 342 355 9 14 42 29 42 66 77 100 96 85 97 106 124 131 125 62 289 303 308 295 274 282 307 314 262 304 252 168 171 177 172 177
305 305 308 341 343 340 303 311 334 319 315 331 0 16 38 13 8 23 51 27 47 73 20 169 318 112 133 104 90 300 311 319 305 292 284 310 325 296 304 335 262 166 170 173 176
307 301 339 351 343 345 316 354 314 305 310 320 328 1 19 16 0 6 79 103 73 39 110 334 179 161 116 94 63 28 303 288 295 297 287 303 318 255 272 277 248 222 156 156 167
307 331 13 357 315 303 13 344 314 309 301 309 310 317 354 342 337 6 39 118 61 7 359 119 147 156 146 163 120 123 104 299 288 294 296 308 302 298 278 273 300 267 111 125 143
305 20 10 319 49 303 0 349 343 331 310 307 314 315 310 315 329 12 25 144 101 144 60 69 42 317 64 20 117 84 132 23 294 296 295 301 301 284 280 329 3 14 46 120 139
333 10 341 332 38 331 318 335 341 356 317 319 308 329 317 297 303 340 27 354 39 148 146 15 351 326 318 11 322 92 53 16 308 286 289 295 293 295 298 299 347 25 38 104 117
19 17 327 8 335 339 345 313 312 325 325 316 298 297 319 283 296 309 316 315 360 358 156 334 338 192 324 1 78 40 342 326 349 275 288 293 282 257 234 121 74 78 94 96 106
1 8 347 346 6 4 7 349 323 322 335 308 306 299 290 305 287 299 303 321 329 344 1 249 323 286 185 313 308 337 26 6 315 257 276 276 261 295 277 10 252 84 155 107 104
355 359 348 5 348 347 332 333 346 332 314 343 312 322 301 293 292 285 293 295 311 322 325 332 302 293 295 315 316 314 317 318 319 307 293 294 273 307 297 307 297 295 330 31 355
355 356 339 343 342 332 324 329 321 318 327 313 317 305 299 296 295 285 282 299 295 303 302 311 302 292 295 296 307 308 304 307 310 309 299 270 276 273 323 304 294 297 316 320 354
357 354 349 333 328 324 325 324 319 313 318 320 319 312 300 294 292 289 288 286 300 303 309 297 287 292 292 288 301 300 288 217 295 308 297 287 313 194 168 147 148 148 121 91 121
358 349 340 332 324 318 316 316 312 309 308 306 307 303 314 302 298 291 293 296 288 296 298 299 286 286 280 285 282 279 277 161 313 314 312 305 276 295 240 338 332 103 37 110 150
359 352 344 332 324 316 312 309 307 307 304 310 304 299 300 300 294 289 290 283 285 288 290 292 286 282 274 278 277 272 276 283 303 311 315 281 223 318 319 321 323 314 315 296 307